Weather History for Bar Harbor, ME

Change the Weather History Date:

Wednesday, January 30, 2013

  Actual Average Record
Temperature  
Mean Temperature 40 °F -  
Max Temperature 50 °F 30 °F 51 °F (1950)
Min Temperature 30 °F 13 °F -9 °F (1952)
Degree Days  
Heating Degree Days 25    
Moisture  
Dew Point 42 °F    
Average Humidity 97    
Maximum Humidity 100    
Minimum Humidity 81    
Precipitation  
Precipitation 0.30 in - - ()
Sea Level Pressure  
Sea Level Pressure 29.81 in    
Wind  
Wind Speed 12 mph (South)    
Max Wind Speed 25 mph    
Max Gust Speed 37 mph    
Visibility 4 miles    
Events      
Averages and records for this station are not official NWS values.
T = Trace of Precipitation, MM = Missing Value Source: NWS Daily Summary

Daily Weather History Graph

Daily Weather History Graph

Search for Another Location

Airport:

Trip Planner

Search our weather history database for the weather conditions in past years. The results will help you decide how hot, cold, wet, or windy it might be!

Date:

Astronomy

Jan. 30, 2013 Rise Set
Actual Time 6:53 AM EST 4:40 PM EST
Civil Twilight 6:22 AM EST 5:11 PM EST
Nautical Twilight 5:47 AM EST 5:46 PM EST
Astronomical Twilight 5:13 AM EST 6:20 PM EST
Moon 8:47 PM EST (1/30) 8:09 AM EST (1/30)
Length of Visible Light 10h 48m
Length of Day
9h 46m
Waning Gibbous, 88% of the Moon is Illuminated
Jan 30
Waning Gibbous
Feb 3
Last Quarter
Feb 10
New
Feb 17
First Quarter
Feb 25
Full

Hourly Weather History & Observations

Time (EST) Temp. Windchill Dew Point Humidity Pressure Visibility Wind Dir Wind Speed Gust Speed Precip Events Conditions
12:15 AM 30.2 °F - 26.6 °F 86% 30.17 in 10.0 mi Calm Calm - N/A   Overcast
12:35 AM 32.0 °F - 28.4 °F 87% 30.18 in 10.0 mi Calm Calm - N/A   Overcast
12:55 AM 33.8 °F - 28.4 °F 81% 30.17 in 10.0 mi Calm Calm - N/A   Overcast
1:35 AM 35.6 °F 28.0 °F 30.2 °F 81% 30.14 in 10.0 mi South 10.4 mph - N/A   Overcast
1:55 AM 35.6 °F 27.5 °F 32.0 °F 87% 30.13 in 10.0 mi South 11.5 mph - N/A   Overcast
2:15 AM 37.4 °F 29.8 °F 33.8 °F 87% 30.12 in 10.0 mi South 11.5 mph - N/A   Overcast
2:35 AM 37.4 °F 29.8 °F 33.8 °F 87% 30.11 in 10.0 mi South 11.5 mph 17.3 mph N/A   Overcast
2:55 AM 37.4 °F 29.3 °F 33.8 °F 87% 30.10 in 10.0 mi South 12.7 mph - N/A   Overcast
3:15 AM 37.4 °F 29.8 °F 35.6 °F 93% 30.10 in 10.0 mi South 11.5 mph - N/A   Overcast
3:35 AM 37.4 °F 29.8 °F 35.6 °F 93% 30.09 in 10.0 mi South 11.5 mph - N/A   Overcast
3:55 AM 37.4 °F 29.3 °F 35.6 °F 93% 30.09 in 9.0 mi South 12.7 mph - 0.01 in   Overcast
4:15 AM 37.4 °F 29.8 °F 37.4 °F 100% 30.07 in 9.0 mi South 11.5 mph - 0.01 in   Overcast
4:35 AM 37.4 °F 30.3 °F 35.6 °F 93% 30.06 in 7.0 mi South 10.4 mph - 0.01 in   Overcast
4:55 AM 37.4 °F 29.3 °F 37.4 °F 100% 30.04 in 10.0 mi South 12.7 mph - 0.02 in   Overcast
5:15 AM 37.4 °F 28.9 °F 37.4 °F 100% 30.03 in 10.0 mi South 13.8 mph - N/A   Overcast
5:35 AM 37.4 °F 28.9 °F 37.4 °F 100% 30.03 in 10.0 mi South 13.8 mph 19.6 mph 0.01 in   Overcast
5:55 AM 39.2 °F 31.6 °F 39.2 °F 100% 30.03 in 10.0 mi South 12.7 mph - 0.01 in   Overcast
6:15 AM 39.2 °F 30.8 °F 39.2 °F 100% 30.02 in 10.0 mi South 15.0 mph - N/A   Overcast
6:35 AM 39.2 °F 31.6 °F 39.2 °F 100% 30.02 in 10.0 mi South 12.7 mph - 0.01 in   Overcast
6:55 AM 39.2 °F 30.8 °F 39.2 °F 100% 30.01 in 10.0 mi South 15.0 mph 19.6 mph 0.01 in   Overcast
7:15 AM 39.2 °F 31.2 °F 39.2 °F 100% 30.00 in 10.0 mi South 13.8 mph - N/A   Overcast
7:35 AM 39.2 °F 30.8 °F 39.2 °F 100% 29.99 in 3.0 mi South 15.0 mph 19.6 mph 0.01 in   Overcast
7:55 AM 39.2 °F 31.2 °F 39.2 °F 100% 29.99 in 7.0 mi South 13.8 mph - 0.01 in   Overcast
8:15 AM 39.2 °F 32.0 °F 37.4 °F 93% 29.98 in 2.5 mi South 11.5 mph - N/A   Overcast
8:35 AM 39.2 °F 30.5 °F 39.2 °F 100% 29.96 in 1.8 mi South 16.1 mph 20.7 mph N/A   Overcast
8:55 AM 39.2 °F 30.8 °F 39.2 °F 100% 29.95 in 1.5 mi South 15.0 mph - N/A   Overcast
9:15 AM 39.2 °F 31.2 °F 39.2 °F 100% 29.94 in 1.8 mi South 13.8 mph 19.6 mph N/A   Overcast
9:35 AM 41.0 °F 33.9 °F 41.0 °F 100% 29.93 in 2.5 mi South 12.7 mph - 0.01 in   Overcast
9:55 AM 41.0 °F 33.9 °F 39.2 °F 93% 29.93 in 2.0 mi South 12.7 mph - 0.01 in   Overcast
10:15 AM 41.0 °F 33.9 °F 41.0 °F 100% 29.90 in 3.0 mi South 12.7 mph 19.6 mph N/A   Overcast
10:35 AM 42.8 °F 35.4 °F 41.0 °F 93% 29.88 in 2.0 mi South 15.0 mph 23.0 mph N/A   Overcast
10:55 AM 42.8 °F 34.5 °F 42.8 °F 100% 29.85 in 2.5 mi South 18.4 mph 23.0 mph N/A   Overcast
11:15 AM 42.8 °F 34.8 °F 42.8 °F 100% 29.84 in 3.0 mi South 17.3 mph 25.3 mph N/A   Overcast
11:35 AM 44.6 °F 36.9 °F 44.6 °F 100% 29.82 in 2.5 mi South 18.4 mph 25.3 mph N/A   Overcast
11:55 AM 44.6 °F 36.9 °F 42.8 °F 93% 29.79 in 1.5 mi South 18.4 mph 25.3 mph N/A   Overcast
12:15 PM 46.4 °F 39.0 °F 46.4 °F 100% 29.78 in 5.0 mi SSW 19.6 mph 28.8 mph N/A   Overcast
12:35 PM 46.4 °F 39.0 °F 46.4 °F 100% 29.76 in 6.0 mi SSW 19.6 mph 29.9 mph N/A   Overcast
12:55 PM 46.4 °F 39.2 °F 46.4 °F 100% 29.74 in 8.0 mi South 18.4 mph 23.0 mph N/A   Overcast
1:15 PM 46.4 °F 39.2 °F 46.4 °F 100% 29.73 in 5.0 mi South 18.4 mph 23.0 mph N/A   Overcast
1:35 PM 46.4 °F 39.8 °F 46.4 °F 100% 29.72 in 6.0 mi SSW 16.1 mph 19.6 mph N/A   Overcast
1:55 PM 46.4 °F 40.4 °F 44.6 °F 93% 29.71 in 5.0 mi SSW 13.8 mph 24.2 mph N/A   Overcast
2:15 PM 46.4 °F 39.8 °F 44.6 °F 93% 29.69 in 4.0 mi SSW 16.1 mph 19.6 mph N/A   Overcast
2:35 PM 46.4 °F 39.5 °F 44.6 °F 93% 29.68 in 2.5 mi SSW 17.3 mph 26.5 mph N/A   Overcast
2:55 PM 46.4 °F 39.5 °F 44.6 °F 93% 29.67 in 1.2 mi SSW 17.3 mph 20.7 mph N/A   Overcast
3:15 PM 46.4 °F 38.3 °F 46.4 °F 100% 29.65 in 0.5 mi SSW 23.0 mph - N/A   Overcast
3:35 PM 46.4 °F 38.7 °F 46.4 °F 100% 29.64 in 0.2 mi South 20.7 mph - N/A   Overcast
3:55 PM 46.4 °F 40.1 °F 46.4 °F 100% 29.63 in 0.2 mi SSW 15.0 mph 23.0 mph N/A   Overcast
4:15 PM 46.4 °F 39.2 °F 46.4 °F 100% 29.62 in 0.2 mi SSW 18.4 mph 21.9 mph N/A   Overcast
4:35 PM 48.2 °F - 46.4 °F 93% 29.60 in 0.8 mi SSW 18.4 mph 27.6 mph N/A   Overcast
4:55 PM 48.2 °F - 48.2 °F 100% 29.59 in 1.8 mi SSW 25.3 mph 33.4 mph N/A   Overcast
5:35 PM 48.2 °F - 48.2 °F 100% 29.58 in 2.5 mi SSW 25.3 mph 33.4 mph N/A   Overcast
5:55 PM 48.2 °F - 48.2 °F 100% 29.58 in 3.0 mi SSW 23.0 mph 32.2 mph N/A   Overcast
6:15 PM 48.2 °F - 48.2 °F 100% 29.58 in 2.5 mi SSW 25.3 mph 36.8 mph N/A   Overcast
6:35 PM 48.2 °F - 48.2 °F 100% 29.58 in 2.0 mi SSW 23.0 mph 32.2 mph N/A   Overcast
6:55 PM 48.2 °F - 48.2 °F 100% 29.56 in 1.8 mi SSW 24.2 mph 36.8 mph 0.01 in   Overcast
7:15 PM 48.2 °F - 48.2 °F 100% 29.57 in 1.2 mi SSW 20.7 mph 27.6 mph N/A   Overcast
7:35 PM 48.2 °F - 46.4 °F 93% 29.57 in 0.8 mi SSW 15.0 mph 21.9 mph N/A   Overcast
7:55 PM 48.2 °F - 48.2 °F 100% 29.57 in 0.8 mi SSW 16.1 mph 21.9 mph 0.01 in   Overcast
8:15 PM 48.2 °F - 48.2 °F 100% 29.56 in 0.5 mi SSW 16.1 mph 20.7 mph N/A   Overcast
8:35 PM 48.2 °F - 48.2 °F 100% 29.55 in 1.5 mi SSW 20.7 mph 25.3 mph 0.05 in   Overcast
8:55 PM 48.2 °F - 46.4 °F 93% 29.54 in 1.8 mi SSW 20.7 mph 25.3 mph 0.13 in   Overcast
9:15 PM 48.2 °F - 46.4 °F 93% 29.53 in 3.0 mi SSW 17.3 mph 23.0 mph 0.05 in   Overcast
9:35 PM 48.2 °F - 48.2 °F 100% 29.52 in 2.0 mi SSW 18.4 mph 25.3 mph 0.08 in   Overcast
9:55 PM 48.2 °F - 48.2 °F 100% 29.51 in 1.2 mi SSW 17.3 mph 27.6 mph 0.08 in   Overcast
10:15 PM 48.2 °F - 48.2 °F 100% 29.51 in 0.8 mi SSW 15.0 mph 19.6 mph N/A   Overcast
10:35 PM 48.2 °F - 48.2 °F 100% 29.50 in 0.5 mi SSW 13.8 mph - N/A   Overcast
10:55 PM 48.2 °F - 46.4 °F 93% 29.49 in 0.5 mi SSW 16.1 mph 21.9 mph N/A   Overcast
11:15 PM 48.2 °F - 48.2 °F 100% 29.49 in 0.5 mi SSW 13.8 mph - N/A   Overcast
11:35 PM 50.0 °F - 50.0 °F 100% 29.48 in 1.2 mi SSW 18.4 mph 23.0 mph N/A   Overcast
11:55 PM 48.2 °F - 48.2 °F 100% 29.47 in 1.5 mi SSW 15.0 mph 21.9 mph N/A   Overcast